EUTELSAT 5 WEST A

Last updated on Fri Jan 20 2023 00:02:45 GMT+0000 (Coordinated Universal Time)

1 27460U 02035A 23019.39057984 -.00000024 00000+0 00000+0 0 9994 2 27460 2.8416 86.8666 0009999 340.8624 109.9694 0.98353419 75131
UTC large
Height (km)
Speed (km/s)
/
Latitude / Longitude
Inclination (degrees)
Orbital Period (minutes)
Azimuth
Elevation
Range (km)
Doppler Factor

Next 0 passes for location: London (51.5072 / 0.1276)

Sorry there are no passes over London.
EUTELSAT 5 WEST A